Location: Follega
(52.8850°N, 5.7362°E)
Time: 12:53:53
(UTC+00:00)

Cosmos 1092 Rocket - Pass Details

Date: 01 June 2020
Orbit: 955 x 994 km, 82.9° (Epoch: 11 July)

Event Time Altitude Azimuth Distance (km) Brightness Sun altitude
Exits shadow 21:15:28 - 176° (S) 2,942 6.0 -9.0°
Reaches altitude 10° 21:16:10 10° 175° (S) 2,680 5.8 -9.1°
Maximum altitude 21:22:13 65° 95° (E) 1,047 4.1 -9.6°
Drops below altitude 10° 21:28:20 10° 15° (NNE) 2,707 7.0 -10.0°
Sets 21:30:51 0° 13° (NNE) 3,661 7.8 -10.2°
